Temp
-10 -10 -10 -10 -10 -10 -10 -10 -10 -10 -10 -9 -9 -9 -9 -9 -9 -9 -9 -10 -10 -10 -10 -10 -10 -10 -10 -11 -11 -11 -11 -11 -11 -12 -12 -12 -12 -12 -12 -11 -11 -11 -11
-10 -10 -10 -10 -10 -10 -10 -10 -10 -9 -9 -9 -9 -9 -9 -9 -9 -9 -9 -10 -10 -10 -11 -11 -11 -11 -12 -12 -12 -12 -12 -12 -12 -12 -12 -12 -12 -12 -12 -12 -12 -12 -11
-10 -10 -10 -10 -10 -10 -10 -10 -10 -10 -9 -9 -9 -10 -10 -10 -10 -10 -10 -10 -10 -11 -11 -12 -12 -12 -13 -13 -12 -12 -13 -13 -13 -13 -13 -13 -13 -13 -13 -13 -13 -12 -12
-10 -10 -10 -10 -10 -10 -10 -10 -10 -10 -9 -10 -10 -10 -11 -11 -12 -12 -12 -12 -12 -12 -13 -13 -12 -12 -13 -13 -13 -13 -13 -13 -13 -13 -13 -13 -12 -14 -13 -13 -13 -13 -12
-10 -10 -10 -10 -10 -10 -10 -10 -10 -10 -10 -11 -11 -12 -12 -12 -12 -12 -12 -12 -12 -12 -13 -13 -13 -13 -13 -13 -13 -13 -13 -13 -13 -13 -13 -13 -13 -14 -14 -14 -13 -12 -12
-10 -10 -10 -10 -10 -10 -10 -11 -11 -12 -12 -12 -12 -12 -12 -12 -12 -12 -12 -12 -12 -12 -13 -13 -13 -13 -13 -13 -13 -12 -13 -13 -13 -13 -13 -13 -13 -14 -13 -13 -13 -14 -14
-11 -10 -11 -11 -12 -12 -12 -12 -12 -12 -12 -12 -12 -11 -12 -11 -12 -12 -12 -12 -12 -13 -13 -13 -13 -13 -13 -12 -12 -13 -13 -14 -14 -14 -14 -13 -14 -14 -14 -13 -13 -13 -13
-11 -11 -12 -12 -12 -12 -12 -12 -12 -12 -11 -12 -12 -12 -12 -11 -12 -11 -12 -12 -12 -13 -13 -12 -13 -13 -12 -12 -13 -13 -13 -14 -14 -15 -15 -15 -15 -14 -14 -14 -14 -13 -14
-12 -12 -12 -12 -12 -12 -12 -12 -12 -12 -11 -12 -12 -12 -12 -12 -11 -11 -11 -12 -12 -13 -13 -13 -13 -13 -13 -13 -13 -13 -14 -14 -14 -14 -15 -16 -16 -15 -15 -14 -14 -13 -13
-12 -12 -12 -13 -13 -13 -13 -12 -12 -12 -12 -12 -12 -13 -12 -12 -12 -12 -11 -12 -12 -12 -13 -13 -13 -13 -13 -13 -13 -13 -14 -15 -14 -15 -15 -16 -18 -17 -16 -14 -14 -13 -13
-12 -12 -13 -14 -15 -14 -13 -12 -12 -12 -12 -13 -12 -13 -13 -12 -12 -12 -13 -12 -12 -12 -13 -13 -13 -13 -13 -13 -13 -13 -14 -15 -15 -15 -16 -17 -18 -17 -16 -15 -14 -13 -13
-12 -13 -13 -15 -15 -14 -13 -13 -13 -13 -13 -13 -13 -12 -13 -12 -12 -12 -12 -13 -13 -13 -12 -13 -13 -13 -13 -13 -13 -13 -13 -14 -15 -16 -16 -16 -17 -16 -15 -14 -14 -14 -13
-12 -12 -12 -13 -13 -13 -13 -13 -13 -13 -13 -13 -13 -13 -12 -13 -12 -13 -13 -13 -13 -13 -13 -12 -12 -13 -13 -13 -14 -14 -14 -13 -14 -15 -15 -15 -15 -14 -14 -14 -15 -15 -14
-13 -13 -12 -13 -13 -13 -13 -13 -13 -13 -13 -13 -13 -13 -12 -13 -13 -13 -13 -13 -13 -13 -13 -13 -13 -13 -13 -13 -13 -14 -14 -14 -14 -14 -14 -15 -15 -13 -13 -13 -14 -14 -13
-13 -13 -13 -13 -12 -12 -13 -13 -13 -13 -13 -13 -13 -13 -13 -13 -13 -13 -13 -13 -13 -13 -13 -13 -13 -13 -13 -13 -13 -14 -14 -14 -14 -14 -14 -13 -13 -13 -15 -14 -15 -15 -14
-13 -13 -13 -13 -13 -13 -13 -13 -14 -13 -13 -13 -13 -13 -13 -13 -13 -13 -13 -13 -13 -13 -13 -13 -13 -13 -13 -13 -13 -13 -13 -14 -14 -14 -14 -14 -14 -13 -14 -14 -15 -15 -15
-14 -14 -13 -13 -13 -13 -13 -14 -14 -14 -13 -13 -13 -13 -13 -13 -13 -13 -13 -13 -13 -13 -13 -13 -13 -13 -13 -13 -13 -13 -13 -13 -14 -14 -14 -14 -14 -14 -14 -14 -14 -14 -14
-14 -14 -14 -13 -13 -13 -13 -13 -13 -13 -13 -13 -13 -13 -13 -13 -13 -13 -13 -13 -13 -13 -13 -13 -13 -13 -13 -13 -13 -13 -13 -13 -13 -13 -14 -14 -14 -14 -14 -14 -14 -14 -14
-14 -14 -14 -14 -13 -13 -13 -13 -13 -13 -13 -13 -13 -13 -13 -13 -12 -12 -12 -13 -13 -13 -13 -13 -13 -13 -13 -13 -13 -13 -13 -13 -13 -13 -13 -14 -14 -14 -14 -14 -14 -14 -14
-14 -13 -13 -13 -13 -13 -13 -13 -13 -13 -13 -13 -12 -12 -12 -12 -12 -12 -12 -12 -12 -12 -13 -13 -13 -13 -13 -13 -13 -13 -13 -13 -13 -14 -14 -14 -14 -14 -14 -14 -14 -14 -14
-13 -13 -13 -13 -13 -13 -13 -12 -12 -12 -12 -12 -12 -12 -12 -12 -12 -12 -12 -12 -12 -12 -12 -12 -12 -12 -12 -13 -13 -13 -13 -13 -13 -14 -14 -14 -14 -14 -14 -14 -14 -14 -14
-13 -14 -14 -13 -13 -13 -12 -12 -12 -12 -12 -12 -12 -12 -12 -12 -12 -12 -12 -12 -12 -12 -12 -12 -12 -12 -12 -13 -13 -13 -13 -13 -13 -13 -14 -14 -14 -15 -15 -15 -15 -15 -15
-13 -13 -13 -13 -13 -13 -12 -12 -12 -12 -12 -12 -12 -12 -12 -12 -12 -12 -12 -12 -12 -12 -12 -12 -13 -13 -13 -13 -13 -13 -14 -14 -14 -14 -14 -14 -14 -15 -15 -15 -16 -15 -15
-14 -14 -14 -14 -13 -13 -13 -13 -12 -12 -13 -13 -13 -13 -13 -13 -12 -12 -12 -13 -13 -13 -13 -13 -13 -13 -14 -14 -14 -14 -14 -14 -14 -15 -14 -15 -15 -15 -15 -15 -16 -16 -16
-15 -15 -14 -14 -14 -14 -13 -13 -13 -13 -13 -13 -13 -13 -12 -13 -13 -13 -12 -13 -13 -14 -14 -14 -14 -14 -14 -14 -14 -14 -14 -15 -15 -15 -15 -15 -15 -15 -16 -16 -16 -16 -16
-15 -15 -14 -14 -14 -14 -14 -14 -14 -14 -14 -14 -13 -13 -13 -13 -13 -13 -13 -14 -14 -16 -15 -15 -16 -15 -16 -15 -15 -15 -15 -15 -16 -16 -16 -16 -16 -16 -16 -17 -16 -17 -17
Height
5832 5830 5828 5827 5825 5823 5821 5818 5816 5813 5810 5807 5804 5802 5799 5796 5794 5792 5789 5787 5785 5783 5781 5779 5778 5777 5776 5775 5775 5774 5773 5773 5772 5773 5773 5773 5773 5774 5775 5776 5777 5779 5779
5827 5825 5823 5820 5818 5815 5813 5809 5806 5803 5800 5797 5794 5791 5788 5785 5782 5779 5777 5774 5772 5770 5769 5768 5767 5766 5765 5764 5763 5762 5761 5761 5761 5760 5759 5759 5760 5760 5762 5763 5764 5767 5768
5821 5818 5815 5812 5809 5805 5802 5799 5796 5793 5790 5787 5783 5779 5777 5774 5771 5767 5764 5761 5759 5758 5757 5757 5756 5756 5755 5753 5752 5751 5749 5748 5747 5747 5746 5745 5746 5748 5749 5751 5753 5754 5755
5813 5809 5806 5802 5799 5795 5792 5788 5786 5782 5779 5776 5771 5768 5766 5763 5761 5758 5754 5751 5747 5746 5745 5745 5745 5745 5744 5743 5741 5739 5738 5736 5734 5733 5733 5734 5731 5722 5733 5738 5740 5742 5741
5804 5800 5796 5792 5788 5785 5781 5778 5774 5771 5767 5764 5761 5759 5757 5756 5754 5751 5748 5745 5742 5740 5739 5739 5738 5737 5735 5733 5731 5728 5725 5722 5720 5718 5718 5718 5719 5720 5726 5727 5728 5729 5725
5795 5791 5787 5783 5779 5775 5771 5767 5764 5761 5759 5756 5754 5752 5751 5749 5747 5744 5742 5739 5737 5736 5734 5733 5731 5729 5726 5723 5720 5716 5712 5708 5704 5701 5700 5702 5704 5708 5712 5715 5716 5718 5720
5785 5781 5777 5773 5769 5765 5762 5759 5756 5754 5752 5750 5746 5744 5743 5742 5740 5737 5734 5732 5731 5729 5727 5726 5724 5722 5718 5714 5709 5704 5698 5693 5687 5682 5680 5682 5684 5688 5694 5700 5704 5706 5711
5777 5772 5768 5764 5761 5757 5754 5752 5750 5747 5744 5741 5739 5737 5736 5736 5734 5731 5729 5728 5726 5725 5723 5721 5719 5715 5710 5703 5700 5695 5689 5682 5674 5667 5663 5661 5662 5668 5677 5685 5689 5696 5700
5768 5764 5759 5755 5751 5749 5746 5745 5742 5740 5737 5735 5733 5732 5731 5730 5728 5727 5726 5725 5724 5721 5718 5715 5712 5708 5703 5697 5693 5688 5681 5672 5664 5656 5648 5643 5645 5650 5659 5669 5676 5686 5692
5760 5755 5749 5742 5739 5739 5738 5737 5735 5733 5731 5730 5729 5728 5727 5726 5724 5721 5720 5719 5719 5715 5711 5708 5705 5702 5697 5691 5686 5681 5674 5667 5657 5645 5635 5628 5627 5634 5645 5658 5668 5677 5684
5753 5747 5738 5727 5725 5728 5730 5730 5728 5727 5726 5725 5725 5725 5724 5723 5721 5719 5714 5712 5711 5710 5705 5702 5699 5696 5691 5686 5680 5673 5666 5661 5650 5639 5628 5618 5618 5627 5638 5651 5657 5667 5675
5746 5740 5732 5724 5723 5724 5724 5724 5724 5724 5722 5721 5721 5720 5720 5719 5718 5716 5713 5710 5706 5703 5699 5696 5692 5690 5686 5682 5677 5670 5663 5657 5648 5639 5630 5623 5621 5626 5637 5647 5652 5661 5666
5740 5735 5731 5726 5724 5722 5721 5720 5720 5720 5719 5718 5717 5716 5716 5715 5713 5711 5708 5704 5701 5698 5694 5691 5687 5684 5681 5677 5672 5667 5662 5656 5649 5643 5634 5629 5631 5631 5639 5645 5651 5653 5659
5734 5731 5727 5723 5721 5719 5717 5716 5716 5715 5715 5714 5712 5711 5710 5709 5709 5707 5704 5701 5697 5695 5691 5687 5683 5679 5676 5672 5668 5664 5660 5655 5651 5646 5641 5638 5635 5636 5640 5644 5649 5652 5656
5728 5725 5722 5718 5716 5714 5712 5711 5710 5710 5710 5709 5707 5706 5704 5703 5702 5700 5698 5696 5693 5689 5686 5683 5679 5675 5672 5668 5663 5660 5657 5654 5650 5648 5645 5642 5640 5640 5642 5644 5647 5648 5649
5722 5719 5716 5713 5711 5709 5707 5705 5705 5705 5704 5703 5702 5700 5699 5698 5696 5694 5692 5690 5688 5686 5682 5679 5675 5671 5668 5665 5661 5657 5653 5650 5647 5645 5644 5642 5642 5641 5641 5641 5641 5642 5643
5715 5712 5710 5708 5706 5703 5701 5699 5699 5699 5698 5698 5697 5695 5693 5692 5690 5688 5686 5684 5683 5681 5679 5675 5671 5668 5665 5661 5658 5654 5651 5647 5645 5643 5640 5639 5637 5636 5636 5636 5636 5636 5635
5707 5705 5702 5701 5699 5697 5696 5694 5693 5693 5692 5691 5690 5688 5686 5684 5682 5681 5679 5678 5676 5675 5673 5671 5667 5664 5661 5658 5654 5651 5648 5644 5641 5640 5638 5635 5633 5632 5631 5630 5629 5628 5628
5699 5696 5695 5693 5691 5689 5688 5687 5686 5684 5683 5682 5680 5679 5678 5677 5674 5673 5671 5668 5666 5666 5665 5663 5661 5658 5655 5653 5651 5647 5644 5641 5638 5634 5632 5630 5629 5627 5625 5623 5622 5620 5619
5690 5688 5686 5685 5682 5681 5679 5677 5676 5675 5674 5672 5670 5669 5667 5666 5664 5663 5662 5660 5658 5656 5655 5654 5652 5649 5647 5644 5642 5641 5638 5635 5632 5629 5626 5623 5621 5619 5617 5616 5614 5612 5611
5680 5678 5676 5674 5672 5671 5668 5667 5666 5665 5663 5661 5659 5658 5657 5656 5653 5652 5650 5649 5647 5645 5643 5642 5640 5639 5636 5634 5633 5631 5629 5626 5624 5622 5619 5616 5613 5610 5608 5606 5604 5603 5601
5668 5667 5665 5663 5662 5660 5658 5655 5654 5654 5652 5651 5648 5646 5644 5643 5641 5640 5637 5636 5634 5632 5629 5627 5626 5624 5622 5621 5620 5618 5616 5614 5612 5611 5608 5607 5604 5600 5597 5595 5593 5591 5590
5658 5655 5653 5651 5649 5647 5644 5642 5640 5640 5638 5636 5634 5632 5629 5627 5626 5624 5622 5621 5618 5616 5614 5612 5610 5608 5607 5606 5605 5603 5602 5600 5598 5597 5596 5593 5591 5589 5587 5584 5581 5579 5577
5645 5644 5641 5639 5637 5635 5632 5630 5627 5625 5623 5621 5618 5616 5614 5611 5609 5607 5605 5603 5601 5600 5599 5597 5594 5592 5590 5589 5588 5587 5586 5585 5583 5582 5581 5581 5578 5576 5574 5572 5570 5567 5565
5634 5632 5629 5627 5625 5621 5620 5617 5615 5613 5609 5605 5602 5598 5596 5594 5591 5589 5587 5585 5583 5581 5580 5578 5577 5575 5573 5572 5571 5569 5569 5568 5568 5566 5566 5565 5563 5561 5560 5558 5556 5554 5552
5621 5619 5616 5613 5611 5608 5604 5601 5599 5596 5594 5591 5586 5581 5577 5575 5571 5569 5569 5565 5564 5561 5560 5560 5558 5556 5555 5553 5552 5552 5551 5550 5551 5550 5549 5548 5547 5546 5544 5542 5541 5539 5537
Wind_Speed
34 33 32 31 33 35 37 40 42 43 44 46 47 48 50 51 53 54 55 55 55 55 56 56 55 54 53 53 52 52 52 51 51 50 49 48 48 48 48 48 46 44 42
34 34 35 37 39 42 44 46 47 47 48 48 50 51 51 52 53 54 54 55 56 56 55 53 52 51 50 49 48 49 50 51 51 51 50 50 51 51 50 48 47 46 46
36 37 39 42 45 46 47 48 49 50 49 48 48 49 51 53 54 55 55 57 58 58 56 52 48 47 48 49 49 47 47 48 48 48 47 47 49 53 52 49 48 48 48
41 43 45 46 47 48 48 47 47 48 49 50 50 49 45 39 35 33 34 35 39 40 40 40 37 36 37 38 43 47 50 52 53 54 53 49 52 52 49 42 41 47 50
44 45 46 46 45 47 48 49 50 50 49 45 39 34 32 34 33 32 32 30 28 26 24 26 29 35 40 44 47 50 52 55 57 59 59 58 58 50 42 43 44 48 49
46 45 45 46 45 45 45 44 41 36 33 32 32 35 34 33 33 34 34 32 31 30 31 32 33 35 36 38 42 46 49 53 57 60 60 60 62 60 56 51 51 53 53
44 44 44 41 38 37 36 34 33 34 32 35 34 33 32 32 33 33 31 30 26 22 21 22 26 29 32 37 42 39 42 46 52 55 61 65 63 62 58 55 55 51 41
43 42 41 42 38 36 33 32 33 32 32 29 27 27 27 26 26 22 15 13 15 17 20 21 23 29 32 30 25 28 31 35 34 41 50 55 59 63 60 58 57 55 57
41 43 44 44 41 37 34 33 32 33 25 23 20 19 18 17 12 15 17 14 13 17 22 25 27 30 31 26 25 22 30 25 26 31 40 45 53 55 58 57 58 56 52
41 43 47 49 45 38 32 31 29 27 19 16 13 9 10 14 16 20 19 18 17 21 26 28 27 26 29 28 31 38 37 33 27 33 30 36 38 45 48 52 52 50 47
38 42 43 43 31 29 27 25 25 15 10 10 12 11 11 13 13 15 23 24 25 24 26 26 26 24 26 27 27 26 24 27 24 31 35 18 15 23 33 38 50 43 39
36 35 36 27 21 18 19 15 12 10 11 12 12 13 14 13 12 15 18 22 26 24 25 25 26 24 24 25 26 25 25 17 23 28 25 13 7 5 13 27 30 35 37
33 30 28 23 20 20 19 13 12 13 13 13 14 14 13 12 14 17 20 20 19 19 21 22 24 24 25 24 24 24 24 24 21 22 20 13 6 13 17 12 24 30 32
31 30 26 25 25 24 22 17 16 16 15 16 16 16 16 16 16 17 18 17 16 16 20 22 24 25 27 28 27 25 24 21 22 22 15 10 2 9 8 8 14 15 16
29 28 26 25 25 25 25 22 21 19 18 19 20 20 20 20 20 19 17 13 14 18 20 21 23 24 25 28 30 30 28 24 21 18 16 10 3 6 12 21 21 23 22
29 27 24 22 23 24 25 24 25 24 23 22 24 24 25 24 23 22 20 18 16 17 18 20 20 23 25 27 29 31 30 30 28 24 17 11 4 5 12 17 21 27 28
28 26 25 25 23 25 24 23 24 26 26 27 27 29 29 29 27 26 25 23 21 20 19 20 21 23 23 24 25 27 30 29 28 28 27 22 17 14 13 14 16 18 21
30 29 27 27 27 27 25 24 26 29 32 32 33 33 33 32 31 30 29 29 28 27 26 25 26 26 25 25 27 29 28 29 31 30 28 27 25 24 22 22 23 24 25
32 32 31 31 31 30 29 30 30 32 33 35 36 36 36 36 36 34 34 34 35 34 32 32 33 33 33 32 33 34 33 31 30 30 31 30 29 28 27 27 29 30 31
35 35 35 34 34 33 33 34 35 36 38 39 38 38 38 38 38 38 38 38 39 41 40 39 39 39 40 41 40 39 39 39 37 34 32 32 33 33 33 33 32 32 33
39 39 39 39 37 36 37 37 38 38 39 39 41 42 43 43 43 42 42 42 43 44 44 44 45 45 47 46 46 45 44 43 43 41 38 36 35 35 37 36 35 36 37
42 41 41 40 40 41 42 42 43 43 44 45 46 46 47 48 48 48 48 48 48 48 49 50 51 51 51 52 50 49 49 48 45 45 44 43 41 41 39 40 41 38 38
40 38 37 38 39 40 43 44 47 48 48 50 52 53 54 54 54 55 56 56 56 56 56 57 56 57 56 55 55 53 54 53 52 50 49 47 47 46 45 43 43 43 41
36 36 37 38 39 40 41 43 45 46 48 50 54 57 58 60 61 61 62 61 61 61 62 61 61 60 59 59 58 57 57 56 57 55 54 53 50 49 49 49 48 48 46
39 40 42 43 44 45 45 46 47 48 49 51 53 56 58 61 64 65 66 67 67 65 65 64 64 64 63 62 61 60 60 60 59 59 57 56 55 52 50 51 51 52 49
47 47 48 49 50 50 52 53 54 53 55 57 58 60 63 64 66 67 67 69 69 68 69 64 63 64 65 65 65 64 62 61 59 59 58 57 56 56 53 52 53 53 53
Wind_Direction
293 292 289 286 286 287 287 288 288 287 287 287 286 286 285 284 283 282 282 281 280 280 280 280 280 280 280 280 279 278 277 276 274 273 272 271 269 268 269 269 270 270 270
295 293 291 290 291 290 290 290 289 289 289 289 288 287 286 286 285 285 284 282 281 279 278 277 278 279 279 279 278 277 277 275 273 272 271 270 268 265 264 263 264 265 266
297 294 292 290 290 291 292 292 292 293 293 291 289 288 287 286 285 285 285 283 282 280 279 279 279 279 280 281 281 279 277 276 274 272 270 270 269 264 263 260 262 262 262
297 295 295 295 295 296 296 296 294 293 292 290 287 286 288 290 293 299 303 302 297 290 285 281 278 275 275 278 280 280 278 275 273 272 271 267 274 251 257 255 259 261 257
298 298 298 298 298 297 297 296 296 294 292 293 293 290 292 296 296 298 302 307 309 307 299 292 288 286 286 285 285 284 283 280 276 272 270 267 265 260 270 260 256 253 265
301 300 299 299 299 299 298 295 296 297 295 295 293 294 291 291 296 296 297 297 298 298 295 292 291 292 293 294 294 290 286 283 279 274 269 266 263 260 260 255 256 258 271
299 300 300 301 302 300 296 293 294 299 296 292 290 289 289 290 293 298 299 298 301 302 302 303 307 309 308 306 306 298 293 290 280 273 267 262 260 259 256 254 253 255 260
301 301 300 298 294 292 292 290 292 298 295 296 294 295 293 294 297 300 309 319 317 309 307 311 315 320 319 310 308 296 299 302 301 288 272 265 259 254 253 251 251 251 255
303 303 303 300 293 284 289 291 295 303 296 304 302 300 298 299 294 303 304 311 316 310 311 315 314 318 326 297 292 292 314 305 314 302 288 273 259 252 248 247 249 250 256
305 308 306 299 290 279 284 292 294 299 295 299 295 294 299 301 303 308 312 315 319 315 312 314 314 317 324 328 294 290 298 295 319 312 315 281 266 250 243 242 247 250 253
310 313 319 311 283 276 286 296 299 288 286 293 296 291 292 295 300 306 305 313 316 316 312 316 317 320 323 330 339 346 309 306 329 334 336 302 261 239 241 239 244 250 254
311 320 331 333 310 301 303 300 286 275 287 296 297 299 300 301 287 289 292 303 311 324 323 324 324 324 322 328 337 348 356 327 353 353 328 8 90 184 229 236 239 249 252
309 316 324 326 314 308 302 278 265 278 291 296 300 301 306 300 297 301 304 308 320 331 335 337 334 333 332 330 333 340 352 3 353 352 350 45 103 149 212 223 254 260 263
308 309 311 310 305 302 295 274 258 268 279 288 292 292 290 289 296 303 304 309 323 334 340 342 340 340 344 345 343 341 342 351 3 16 15 26 201 218 236 247 267 243 243
303 305 307 304 303 299 291 274 253 259 270 278 283 284 284 287 294 301 303 305 316 323 331 335 337 341 346 345 344 346 345 344 346 358 17 19 319 256 263 259 263 256 266
300 298 300 303 307 307 297 276 255 258 267 274 281 286 286 288 293 296 293 293 302 312 317 330 332 341 344 346 347 344 343 344 341 340 343 350 355 275 267 267 270 266 271
295 295 293 293 298 301 305 288 264 265 269 279 283 287 288 287 291 292 289 286 290 295 297 304 315 324 333 338 340 344 345 338 336 335 332 328 322 312 301 288 281 278 279
293 293 294 293 291 289 291 291 281 273 273 278 282 285 286 285 286 287 288 284 285 286 289 294 299 304 312 319 325 328 331 336 336 331 325 320 315 307 299 292 289 286 285
290 294 295 295 294 291 285 280 278 277 276 278 281 283 283 283 285 285 285 283 280 280 283 288 291 295 300 306 311 314 315 318 320 324 323 318 309 304 298 293 288 284 284
283 287 289 288 287 288 287 284 280 277 277 278 278 278 278 279 280 282 283 283 284 284 283 283 286 289 292 295 298 302 305 308 309 309 312 313 312 305 298 295 292 288 283
284 286 286 284 282 281 281 282 282 283 281 281 281 281 279 278 277 278 278 280 280 281 283 284 286 287 288 289 291 294 294 297 299 299 300 301 300 302 301 297 293 289 287
286 287 287 286 285 283 281 280 279 279 280 280 279 278 278 279 280 280 278 277 277 278 278 278 279 279 280 281 282 283 286 286 288 292 295 295 295 294 297 296 294 294 286
287 286 285 285 285 284 282 282 282 281 279 278 277 278 278 277 277 277 278 278 276 275 274 275 275 276 277 279 279 279 279 281 282 284 285 286 288 289 290 292 292 292 291
283 285 287 288 288 287 285 285 284 285 286 285 283 281 280 279 278 278 278 277 277 278 278 277 276 276 276 276 276 276 277 278 278 279 280 282 283 284 286 288 289 291 289
285 288 288 288 288 288 288 288 288 288 289 289 288 286 285 283 281 279 278 277 277 276 277 277 278 277 276 275 274 274 275 276 278 278 281 281 281 280 282 283 285 289 290
281 282 284 285 285 287 289 290 290 291 292 293 293 292 289 286 284 283 281 279 278 277 275 277 279 278 276 275 273 272 273 275 277 278 279 278 278 278 279 281 283 284 287